<?xml version="1.0"?>
<gpx xmlns="http://www.topografix.com/GPX/1/1" xmlns:xsi="http://www.w3.org/2001/XMLSchema-instance" version="1.1" creator="GPX RubyGem 1.0.0 -- http://dougfales.github.io/gpx/" xsi:schemaLocation="http://www.topografix.com/GPX/1/1 http://www.topografix.com/GPX/1/1/gpx.xsd">
  <metadata>
    <name/>
    <time>2026-05-08T00:58:08+00:00</time>
    <bound minlat="90.0" minlon="180.0" maxlat="-90.0" maxlon="-180.0"/>
  </metadata>
  <trk>
    <name/>
    <trkseg>
      <trkpt lat="45.422421" lon="6.972541">
        <time>1970-01-01T00:00:00+00:00</time>
        <ele>1941.0</ele>
      </trkpt>
      <trkpt lat="45.42237" lon="6.97254">
        <time>1970-01-01T00:00:00+00:00</time>
        <ele>1941.0</ele>
      </trkpt>
      <trkpt lat="45.421902" lon="6.972464">
        <time>1970-01-01T00:00:00+00:00</time>
        <ele>1944.0</ele>
      </trkpt>
      <trkpt lat="45.421704" lon="6.972445">
        <time>1970-01-01T00:00:00+00:00</time>
        <ele>1945.0</ele>
      </trkpt>
      <trkpt lat="45.421596" lon="6.972455">
        <time>1970-01-01T00:00:00+00:00</time>
        <ele>1946.0</ele>
      </trkpt>
      <trkpt lat="45.4213" lon="6.972591">
        <time>1970-01-01T00:00:00+00:00</time>
        <ele>1949.0</ele>
      </trkpt>
      <trkpt lat="45.421178" lon="6.972623">
        <time>1970-01-01T00:00:00+00:00</time>
        <ele>1950.0</ele>
      </trkpt>
      <trkpt lat="45.420946" lon="6.972644">
        <time>1970-01-01T00:00:00+00:00</time>
        <ele>1952.0</ele>
      </trkpt>
      <trkpt lat="45.4207" lon="6.972786">
        <time>1970-01-01T00:00:00+00:00</time>
        <ele>1957.0</ele>
      </trkpt>
      <trkpt lat="45.420609" lon="6.972807">
        <time>1970-01-01T00:00:00+00:00</time>
        <ele>1959.0</ele>
      </trkpt>
      <trkpt lat="45.420453" lon="6.972747">
        <time>1970-01-01T00:00:00+00:00</time>
        <ele>1961.0</ele>
      </trkpt>
      <trkpt lat="45.420205" lon="6.972518">
        <time>1970-01-01T00:00:00+00:00</time>
        <ele>1962.0</ele>
      </trkpt>
      <trkpt lat="45.420069" lon="6.97222">
        <time>1970-01-01T00:00:00+00:00</time>
        <ele>1960.0</ele>
      </trkpt>
      <trkpt lat="45.420019" lon="6.972146">
        <time>1970-01-01T00:00:00+00:00</time>
        <ele>1960.0</ele>
      </trkpt>
      <trkpt lat="45.419945" lon="6.972089">
        <time>1970-01-01T00:00:00+00:00</time>
        <ele>1960.0</ele>
      </trkpt>
      <trkpt lat="45.419799" lon="6.97204">
        <time>1970-01-01T00:00:00+00:00</time>
        <ele>1961.0</ele>
      </trkpt>
      <trkpt lat="45.419631" lon="6.971946">
        <time>1970-01-01T00:00:00+00:00</time>
        <ele>1961.0</ele>
      </trkpt>
      <trkpt lat="45.419559" lon="6.971903">
        <time>1970-01-01T00:00:00+00:00</time>
        <ele>1961.0</ele>
      </trkpt>
      <trkpt lat="45.419504" lon="6.971844">
        <time>1970-01-01T00:00:00+00:00</time>
        <ele>1961.0</ele>
      </trkpt>
      <trkpt lat="45.419356" lon="6.97175">
        <time>1970-01-01T00:00:00+00:00</time>
        <ele>1962.0</ele>
      </trkpt>
      <trkpt lat="45.419026" lon="6.97158">
        <time>1970-01-01T00:00:00+00:00</time>
        <ele>1961.0</ele>
      </trkpt>
      <trkpt lat="45.41898" lon="6.971529">
        <time>1970-01-01T00:00:00+00:00</time>
        <ele>1961.0</ele>
      </trkpt>
      <trkpt lat="45.418951" lon="6.971486">
        <time>1970-01-01T00:00:00+00:00</time>
        <ele>1961.0</ele>
      </trkpt>
      <trkpt lat="45.418927" lon="6.971371">
        <time>1970-01-01T00:00:00+00:00</time>
        <ele>1961.0</ele>
      </trkpt>
      <trkpt lat="45.418958" lon="6.970908">
        <time>1970-01-01T00:00:00+00:00</time>
        <ele>1961.0</ele>
      </trkpt>
      <trkpt lat="45.418951" lon="6.970707">
        <time>1970-01-01T00:00:00+00:00</time>
        <ele>1962.0</ele>
      </trkpt>
      <trkpt lat="45.418935" lon="6.970659">
        <time>1970-01-01T00:00:00+00:00</time>
        <ele>1963.0</ele>
      </trkpt>
      <trkpt lat="45.418881" lon="6.970613">
        <time>1970-01-01T00:00:00+00:00</time>
        <ele>1964.0</ele>
      </trkpt>
      <trkpt lat="45.418699" lon="6.970602">
        <time>1970-01-01T00:00:00+00:00</time>
        <ele>1967.0</ele>
      </trkpt>
      <trkpt lat="45.418604" lon="6.97064">
        <time>1970-01-01T00:00:00+00:00</time>
        <ele>1969.0</ele>
      </trkpt>
      <trkpt lat="45.418551" lon="6.970742">
        <time>1970-01-01T00:00:00+00:00</time>
        <ele>1970.0</ele>
      </trkpt>
      <trkpt lat="45.41848" lon="6.970962">
        <time>1970-01-01T00:00:00+00:00</time>
        <ele>1972.0</ele>
      </trkpt>
      <trkpt lat="45.418385" lon="6.971142">
        <time>1970-01-01T00:00:00+00:00</time>
        <ele>1975.0</ele>
      </trkpt>
      <trkpt lat="45.418349" lon="6.971604">
        <time>1970-01-01T00:00:00+00:00</time>
        <ele>1979.0</ele>
      </trkpt>
      <trkpt lat="45.418298" lon="6.971664">
        <time>1970-01-01T00:00:00+00:00</time>
        <ele>1981.0</ele>
      </trkpt>
      <trkpt lat="45.418263" lon="6.971664">
        <time>1970-01-01T00:00:00+00:00</time>
        <ele>1982.0</ele>
      </trkpt>
      <trkpt lat="45.418222" lon="6.971638">
        <time>1970-01-01T00:00:00+00:00</time>
        <ele>1984.0</ele>
      </trkpt>
      <trkpt lat="45.418112" lon="6.971463">
        <time>1970-01-01T00:00:00+00:00</time>
        <ele>1986.0</ele>
      </trkpt>
      <trkpt lat="45.418" lon="6.971221">
        <time>1970-01-01T00:00:00+00:00</time>
        <ele>1988.0</ele>
      </trkpt>
      <trkpt lat="45.417972" lon="6.971029">
        <time>1970-01-01T00:00:00+00:00</time>
        <ele>1988.0</ele>
      </trkpt>
      <trkpt lat="45.417965" lon="6.970823">
        <time>1970-01-01T00:00:00+00:00</time>
        <ele>1987.0</ele>
      </trkpt>
      <trkpt lat="45.41794" lon="6.970755">
        <time>1970-01-01T00:00:00+00:00</time>
        <ele>1987.0</ele>
      </trkpt>
      <trkpt lat="45.417682" lon="6.970431">
        <time>1970-01-01T00:00:00+00:00</time>
        <ele>1991.0</ele>
      </trkpt>
      <trkpt lat="45.417416" lon="6.970168">
        <time>1970-01-01T00:00:00+00:00</time>
        <ele>1995.0</ele>
      </trkpt>
      <trkpt lat="45.417357" lon="6.970068">
        <time>1970-01-01T00:00:00+00:00</time>
        <ele>1997.0</ele>
      </trkpt>
      <trkpt lat="45.417324" lon="6.969912">
        <time>1970-01-01T00:00:00+00:00</time>
        <ele>1998.0</ele>
      </trkpt>
      <trkpt lat="45.41731" lon="6.969583">
        <time>1970-01-01T00:00:00+00:00</time>
        <ele>1999.0</ele>
      </trkpt>
      <trkpt lat="45.417258" lon="6.969318">
        <time>1970-01-01T00:00:00+00:00</time>
        <ele>2000.0</ele>
      </trkpt>
      <trkpt lat="45.417227" lon="6.969239">
        <time>1970-01-01T00:00:00+00:00</time>
        <ele>2000.0</ele>
      </trkpt>
      <trkpt lat="45.417091" lon="6.969283">
        <time>1970-01-01T00:00:00+00:00</time>
        <ele>2003.0</ele>
      </trkpt>
      <trkpt lat="45.417007" lon="6.969318">
        <time>1970-01-01T00:00:00+00:00</time>
        <ele>2007.0</ele>
      </trkpt>
      <trkpt lat="45.416923" lon="6.969405">
        <time>1970-01-01T00:00:00+00:00</time>
        <ele>2013.0</ele>
      </trkpt>
      <trkpt lat="45.41692" lon="6.969601">
        <time>1970-01-01T00:00:00+00:00</time>
        <ele>2015.0</ele>
      </trkpt>
      <trkpt lat="45.416968" lon="6.969673">
        <time>1970-01-01T00:00:00+00:00</time>
        <ele>2012.0</ele>
      </trkpt>
      <trkpt lat="45.416972" lon="6.969726">
        <time>1970-01-01T00:00:00+00:00</time>
        <ele>2013.0</ele>
      </trkpt>
      <trkpt lat="45.416933" lon="6.969838">
        <time>1970-01-01T00:00:00+00:00</time>
        <ele>2016.0</ele>
      </trkpt>
      <trkpt lat="45.416919" lon="6.970057">
        <time>1970-01-01T00:00:00+00:00</time>
        <ele>2018.0</ele>
      </trkpt>
      <trkpt lat="45.416811" lon="6.970349">
        <time>1970-01-01T00:00:00+00:00</time>
        <ele>2023.0</ele>
      </trkpt>
      <trkpt lat="45.416818" lon="6.970429">
        <time>1970-01-01T00:00:00+00:00</time>
        <ele>2024.0</ele>
      </trkpt>
      <trkpt lat="45.416751" lon="6.970507">
        <time>1970-01-01T00:00:00+00:00</time>
        <ele>2027.0</ele>
      </trkpt>
      <trkpt lat="45.416734" lon="6.97064">
        <time>1970-01-01T00:00:00+00:00</time>
        <ele>2029.0</ele>
      </trkpt>
      <trkpt lat="45.416632" lon="6.970892">
        <time>1970-01-01T00:00:00+00:00</time>
        <ele>2036.0</ele>
      </trkpt>
      <trkpt lat="45.416609" lon="6.971114">
        <time>1970-01-01T00:00:00+00:00</time>
        <ele>2039.0</ele>
      </trkpt>
      <trkpt lat="45.416585" lon="6.971127">
        <time>1970-01-01T00:00:00+00:00</time>
        <ele>2040.0</ele>
      </trkpt>
      <trkpt lat="45.416503" lon="6.971098">
        <time>1970-01-01T00:00:00+00:00</time>
        <ele>2044.0</ele>
      </trkpt>
      <trkpt lat="45.416497" lon="6.971156">
        <time>1970-01-01T00:00:00+00:00</time>
        <ele>2045.0</ele>
      </trkpt>
      <trkpt lat="45.416435" lon="6.97131">
        <time>1970-01-01T00:00:00+00:00</time>
        <ele>2049.0</ele>
      </trkpt>
      <trkpt lat="45.416417" lon="6.971308">
        <time>1970-01-01T00:00:00+00:00</time>
        <ele>2050.0</ele>
      </trkpt>
      <trkpt lat="45.416384" lon="6.971251">
        <time>1970-01-01T00:00:00+00:00</time>
        <ele>2051.0</ele>
      </trkpt>
      <trkpt lat="45.416317" lon="6.971205">
        <time>1970-01-01T00:00:00+00:00</time>
        <ele>2054.0</ele>
      </trkpt>
      <trkpt lat="45.416228" lon="6.971078">
        <time>1970-01-01T00:00:00+00:00</time>
        <ele>2058.0</ele>
      </trkpt>
      <trkpt lat="45.416166" lon="6.971037">
        <time>1970-01-01T00:00:00+00:00</time>
        <ele>2061.0</ele>
      </trkpt>
      <trkpt lat="45.416135" lon="6.970969">
        <time>1970-01-01T00:00:00+00:00</time>
        <ele>2063.0</ele>
      </trkpt>
      <trkpt lat="45.416136" lon="6.970905">
        <time>1970-01-01T00:00:00+00:00</time>
        <ele>2062.0</ele>
      </trkpt>
      <trkpt lat="45.416109" lon="6.970886">
        <time>1970-01-01T00:00:00+00:00</time>
        <ele>2064.0</ele>
      </trkpt>
      <trkpt lat="45.416073" lon="6.970769">
        <time>1970-01-01T00:00:00+00:00</time>
        <ele>2066.0</ele>
      </trkpt>
      <trkpt lat="45.415998" lon="6.970665">
        <time>1970-01-01T00:00:00+00:00</time>
        <ele>2071.0</ele>
      </trkpt>
      <trkpt lat="45.415983" lon="6.970594">
        <time>1970-01-01T00:00:00+00:00</time>
        <ele>2071.0</ele>
      </trkpt>
      <trkpt lat="45.415997" lon="6.970555">
        <time>1970-01-01T00:00:00+00:00</time>
        <ele>2071.0</ele>
      </trkpt>
      <trkpt lat="45.41597" lon="6.970458">
        <time>1970-01-01T00:00:00+00:00</time>
        <ele>2072.0</ele>
      </trkpt>
      <trkpt lat="45.415982" lon="6.970348">
        <time>1970-01-01T00:00:00+00:00</time>
        <ele>2072.0</ele>
      </trkpt>
      <trkpt lat="45.415849" lon="6.970217">
        <time>1970-01-01T00:00:00+00:00</time>
        <ele>2077.0</ele>
      </trkpt>
      <trkpt lat="45.415836" lon="6.970147">
        <time>1970-01-01T00:00:00+00:00</time>
        <ele>2077.0</ele>
      </trkpt>
      <trkpt lat="45.415858" lon="6.970093">
        <time>1970-01-01T00:00:00+00:00</time>
        <ele>2076.0</ele>
      </trkpt>
      <trkpt lat="45.4158" lon="6.969854">
        <time>1970-01-01T00:00:00+00:00</time>
        <ele>2075.0</ele>
      </trkpt>
      <trkpt lat="45.415718" lon="6.96974">
        <time>1970-01-01T00:00:00+00:00</time>
        <ele>2076.0</ele>
      </trkpt>
      <trkpt lat="45.415659" lon="6.969599">
        <time>1970-01-01T00:00:00+00:00</time>
        <ele>2075.0</ele>
      </trkpt>
      <trkpt lat="45.415613" lon="6.969372">
        <time>1970-01-01T00:00:00+00:00</time>
        <ele>2071.0</ele>
      </trkpt>
      <trkpt lat="45.415671" lon="6.969413">
        <time>1970-01-01T00:00:00+00:00</time>
        <ele>2071.0</ele>
      </trkpt>
      <trkpt lat="45.4159" lon="6.969404">
        <time>1970-01-01T00:00:00+00:00</time>
        <ele>2065.0</ele>
      </trkpt>
      <trkpt lat="45.416136" lon="6.969319">
        <time>1970-01-01T00:00:00+00:00</time>
        <ele>2058.0</ele>
      </trkpt>
      <trkpt lat="45.416057" lon="6.969021">
        <time>1970-01-01T00:00:00+00:00</time>
        <ele>2052.0</ele>
      </trkpt>
      <trkpt lat="45.416111" lon="6.968942">
        <time>1970-01-01T00:00:00+00:00</time>
        <ele>2049.0</ele>
      </trkpt>
      <trkpt lat="45.415969" lon="6.968632">
        <time>1970-01-01T00:00:00+00:00</time>
        <ele>2043.0</ele>
      </trkpt>
      <trkpt lat="45.415973" lon="6.968569">
        <time>1970-01-01T00:00:00+00:00</time>
        <ele>2042.0</ele>
      </trkpt>
      <trkpt lat="45.416038" lon="6.968546">
        <time>1970-01-01T00:00:00+00:00</time>
        <ele>2040.0</ele>
      </trkpt>
      <trkpt lat="45.416088" lon="6.96849">
        <time>1970-01-01T00:00:00+00:00</time>
        <ele>2038.0</ele>
      </trkpt>
      <trkpt lat="45.41611" lon="6.968414">
        <time>1970-01-01T00:00:00+00:00</time>
        <ele>2036.0</ele>
      </trkpt>
      <trkpt lat="45.416124" lon="6.968291">
        <time>1970-01-01T00:00:00+00:00</time>
        <ele>2033.0</ele>
      </trkpt>
      <trkpt lat="45.416126" lon="6.968165">
        <time>1970-01-01T00:00:00+00:00</time>
        <ele>2032.0</ele>
      </trkpt>
      <trkpt lat="45.416151" lon="6.96809">
        <time>1970-01-01T00:00:00+00:00</time>
        <ele>2032.0</ele>
      </trkpt>
      <trkpt lat="45.416316" lon="6.96804">
        <time>1970-01-01T00:00:00+00:00</time>
        <ele>2034.0</ele>
      </trkpt>
      <trkpt lat="45.416312" lon="6.96797">
        <time>1970-01-01T00:00:00+00:00</time>
        <ele>2035.0</ele>
      </trkpt>
      <trkpt lat="45.415918" lon="6.96778">
        <time>1970-01-01T00:00:00+00:00</time>
        <ele>2037.0</ele>
      </trkpt>
      <trkpt lat="45.415718" lon="6.967789">
        <time>1970-01-01T00:00:00+00:00</time>
        <ele>2036.0</ele>
      </trkpt>
      <trkpt lat="45.415612" lon="6.967724">
        <time>1970-01-01T00:00:00+00:00</time>
        <ele>2037.0</ele>
      </trkpt>
      <trkpt lat="45.415347" lon="6.96747">
        <time>1970-01-01T00:00:00+00:00</time>
        <ele>2044.0</ele>
      </trkpt>
      <trkpt lat="45.415055" lon="6.967243">
        <time>1970-01-01T00:00:00+00:00</time>
        <ele>2047.0</ele>
      </trkpt>
      <trkpt lat="45.4146" lon="6.966856">
        <time>1970-01-01T00:00:00+00:00</time>
        <ele>2052.0</ele>
      </trkpt>
      <trkpt lat="45.414209" lon="6.966478">
        <time>1970-01-01T00:00:00+00:00</time>
        <ele>2056.0</ele>
      </trkpt>
      <trkpt lat="45.413791" lon="6.966034">
        <time>1970-01-01T00:00:00+00:00</time>
        <ele>2060.0</ele>
      </trkpt>
      <trkpt lat="45.413668" lon="6.96582">
        <time>1970-01-01T00:00:00+00:00</time>
        <ele>2062.0</ele>
      </trkpt>
      <trkpt lat="45.413416" lon="6.965212">
        <time>1970-01-01T00:00:00+00:00</time>
        <ele>2065.0</ele>
      </trkpt>
      <trkpt lat="45.412724" lon="6.964066">
        <time>1970-01-01T00:00:00+00:00</time>
        <ele>2077.0</ele>
      </trkpt>
      <trkpt lat="45.412529" lon="6.963572">
        <time>1970-01-01T00:00:00+00:00</time>
        <ele>2080.0</ele>
      </trkpt>
      <trkpt lat="45.412482" lon="6.963328">
        <time>1970-01-01T00:00:00+00:00</time>
        <ele>2082.0</ele>
      </trkpt>
      <trkpt lat="45.412437" lon="6.962838">
        <time>1970-01-01T00:00:00+00:00</time>
        <ele>2085.0</ele>
      </trkpt>
      <trkpt lat="45.412206" lon="6.962033">
        <time>1970-01-01T00:00:00+00:00</time>
        <ele>2093.0</ele>
      </trkpt>
      <trkpt lat="45.412104" lon="6.961839">
        <time>1970-01-01T00:00:00+00:00</time>
        <ele>2095.0</ele>
      </trkpt>
      <trkpt lat="45.412017" lon="6.961632">
        <time>1970-01-01T00:00:00+00:00</time>
        <ele>2098.0</ele>
      </trkpt>
      <trkpt lat="45.411888" lon="6.960977">
        <time>1970-01-01T00:00:00+00:00</time>
        <ele>2108.0</ele>
      </trkpt>
      <trkpt lat="45.411869" lon="6.960909">
        <time>1970-01-01T00:00:00+00:00</time>
        <ele>2109.0</ele>
      </trkpt>
      <trkpt lat="45.411792" lon="6.960763">
        <time>1970-01-01T00:00:00+00:00</time>
        <ele>2109.0</ele>
      </trkpt>
      <trkpt lat="45.411763" lon="6.960504">
        <time>1970-01-01T00:00:00+00:00</time>
        <ele>2117.0</ele>
      </trkpt>
      <trkpt lat="45.411585" lon="6.959863">
        <time>1970-01-01T00:00:00+00:00</time>
        <ele>2132.0</ele>
      </trkpt>
      <trkpt lat="45.411568" lon="6.959482">
        <time>1970-01-01T00:00:00+00:00</time>
        <ele>2142.0</ele>
      </trkpt>
      <trkpt lat="45.411388" lon="6.958145">
        <time>1970-01-01T00:00:00+00:00</time>
        <ele>2162.0</ele>
      </trkpt>
      <trkpt lat="45.411459" lon="6.957515">
        <time>1970-01-01T00:00:00+00:00</time>
        <ele>2173.0</ele>
      </trkpt>
      <trkpt lat="45.411434" lon="6.95629">
        <time>1970-01-01T00:00:00+00:00</time>
        <ele>2198.0</ele>
      </trkpt>
      <trkpt lat="45.411317" lon="6.956084">
        <time>1970-01-01T00:00:00+00:00</time>
        <ele>2199.0</ele>
      </trkpt>
      <trkpt lat="45.411436" lon="6.955853">
        <time>1970-01-01T00:00:00+00:00</time>
        <ele>2209.0</ele>
      </trkpt>
      <trkpt lat="45.411451" lon="6.955172">
        <time>1970-01-01T00:00:00+00:00</time>
        <ele>2223.0</ele>
      </trkpt>
      <trkpt lat="45.411504" lon="6.954986">
        <time>1970-01-01T00:00:00+00:00</time>
        <ele>2229.0</ele>
      </trkpt>
      <trkpt lat="45.411557" lon="6.954435">
        <time>1970-01-01T00:00:00+00:00</time>
        <ele>2238.0</ele>
      </trkpt>
      <trkpt lat="45.411567" lon="6.954081">
        <time>1970-01-01T00:00:00+00:00</time>
        <ele>2242.0</ele>
      </trkpt>
      <trkpt lat="45.411551" lon="6.953868">
        <time>1970-01-01T00:00:00+00:00</time>
        <ele>2244.0</ele>
      </trkpt>
      <trkpt lat="45.411607" lon="6.953647">
        <time>1970-01-01T00:00:00+00:00</time>
        <ele>2251.0</ele>
      </trkpt>
      <trkpt lat="45.411562" lon="6.953493">
        <time>1970-01-01T00:00:00+00:00</time>
        <ele>2252.0</ele>
      </trkpt>
      <trkpt lat="45.4116" lon="6.953238">
        <time>1970-01-01T00:00:00+00:00</time>
        <ele>2259.0</ele>
      </trkpt>
      <trkpt lat="45.411536" lon="6.953002">
        <time>1970-01-01T00:00:00+00:00</time>
        <ele>2259.0</ele>
      </trkpt>
      <trkpt lat="45.411641" lon="6.952575">
        <time>1970-01-01T00:00:00+00:00</time>
        <ele>2271.0</ele>
      </trkpt>
      <trkpt lat="45.411693" lon="6.952459">
        <time>1970-01-01T00:00:00+00:00</time>
        <ele>2274.0</ele>
      </trkpt>
      <trkpt lat="45.41169" lon="6.95231">
        <time>1970-01-01T00:00:00+00:00</time>
        <ele>2276.0</ele>
      </trkpt>
      <trkpt lat="45.41174" lon="6.952014">
        <time>1970-01-01T00:00:00+00:00</time>
        <ele>2279.0</ele>
      </trkpt>
      <trkpt lat="45.41179" lon="6.951942">
        <time>1970-01-01T00:00:00+00:00</time>
        <ele>2281.0</ele>
      </trkpt>
      <trkpt lat="45.411793" lon="6.951821">
        <time>1970-01-01T00:00:00+00:00</time>
        <ele>2282.0</ele>
      </trkpt>
      <trkpt lat="45.411826" lon="6.951649">
        <time>1970-01-01T00:00:00+00:00</time>
        <ele>2283.0</ele>
      </trkpt>
      <trkpt lat="45.412045" lon="6.951349">
        <time>1970-01-01T00:00:00+00:00</time>
        <ele>2292.0</ele>
      </trkpt>
      <trkpt lat="45.412167" lon="6.951109">
        <time>1970-01-01T00:00:00+00:00</time>
        <ele>2295.0</ele>
      </trkpt>
      <trkpt lat="45.412381" lon="6.950833">
        <time>1970-01-01T00:00:00+00:00</time>
        <ele>2301.0</ele>
      </trkpt>
      <trkpt lat="45.412433" lon="6.950743">
        <time>1970-01-01T00:00:00+00:00</time>
        <ele>2303.0</ele>
      </trkpt>
      <trkpt lat="45.412459" lon="6.95063">
        <time>1970-01-01T00:00:00+00:00</time>
        <ele>2304.0</ele>
      </trkpt>
      <trkpt lat="45.412514" lon="6.950524">
        <time>1970-01-01T00:00:00+00:00</time>
        <ele>2306.0</ele>
      </trkpt>
      <trkpt lat="45.412567" lon="6.950465">
        <time>1970-01-01T00:00:00+00:00</time>
        <ele>2308.0</ele>
      </trkpt>
      <trkpt lat="45.412691" lon="6.950387">
        <time>1970-01-01T00:00:00+00:00</time>
        <ele>2312.0</ele>
      </trkpt>
      <trkpt lat="45.412787" lon="6.950168">
        <time>1970-01-01T00:00:00+00:00</time>
        <ele>2316.0</ele>
      </trkpt>
      <trkpt lat="45.412872" lon="6.949844">
        <time>1970-01-01T00:00:00+00:00</time>
        <ele>2319.0</ele>
      </trkpt>
      <trkpt lat="45.413016" lon="6.949582">
        <time>1970-01-01T00:00:00+00:00</time>
        <ele>2323.0</ele>
      </trkpt>
      <trkpt lat="45.413052" lon="6.949473">
        <time>1970-01-01T00:00:00+00:00</time>
        <ele>2323.0</ele>
      </trkpt>
      <trkpt lat="45.413097" lon="6.949397">
        <time>1970-01-01T00:00:00+00:00</time>
        <ele>2326.0</ele>
      </trkpt>
      <trkpt lat="45.413141" lon="6.94921">
        <time>1970-01-01T00:00:00+00:00</time>
        <ele>2328.0</ele>
      </trkpt>
      <trkpt lat="45.413225" lon="6.949079">
        <time>1970-01-01T00:00:00+00:00</time>
        <ele>2334.0</ele>
      </trkpt>
      <trkpt lat="45.413257" lon="6.948975">
        <time>1970-01-01T00:00:00+00:00</time>
        <ele>2336.0</ele>
      </trkpt>
      <trkpt lat="45.413264" lon="6.948877">
        <time>1970-01-01T00:00:00+00:00</time>
        <ele>2337.0</ele>
      </trkpt>
      <trkpt lat="45.413265" lon="6.948624">
        <time>1970-01-01T00:00:00+00:00</time>
        <ele>2338.0</ele>
      </trkpt>
      <trkpt lat="45.413306" lon="6.948539">
        <time>1970-01-01T00:00:00+00:00</time>
        <ele>2341.0</ele>
      </trkpt>
      <trkpt lat="45.413327" lon="6.948447">
        <time>1970-01-01T00:00:00+00:00</time>
        <ele>2343.0</ele>
      </trkpt>
      <trkpt lat="45.413568" lon="6.948115">
        <time>1970-01-01T00:00:00+00:00</time>
        <ele>2355.0</ele>
      </trkpt>
      <trkpt lat="45.413627" lon="6.947909">
        <time>1970-01-01T00:00:00+00:00</time>
        <ele>2358.0</ele>
      </trkpt>
      <trkpt lat="45.413636" lon="6.947758">
        <time>1970-01-01T00:00:00+00:00</time>
        <ele>2359.0</ele>
      </trkpt>
      <trkpt lat="45.413635" lon="6.947433">
        <time>1970-01-01T00:00:00+00:00</time>
        <ele>2363.0</ele>
      </trkpt>
      <trkpt lat="45.413595" lon="6.947224">
        <time>1970-01-01T00:00:00+00:00</time>
        <ele>2365.0</ele>
      </trkpt>
      <trkpt lat="45.413567" lon="6.946901">
        <time>1970-01-01T00:00:00+00:00</time>
        <ele>2369.0</ele>
      </trkpt>
      <trkpt lat="45.413484" lon="6.946578">
        <time>1970-01-01T00:00:00+00:00</time>
        <ele>2371.0</ele>
      </trkpt>
      <trkpt lat="45.413415" lon="6.94615">
        <time>1970-01-01T00:00:00+00:00</time>
        <ele>2371.0</ele>
      </trkpt>
      <trkpt lat="45.413331" lon="6.945448">
        <time>1970-01-01T00:00:00+00:00</time>
        <ele>2375.0</ele>
      </trkpt>
      <trkpt lat="45.413069" lon="6.943706">
        <time>1970-01-01T00:00:00+00:00</time>
        <ele>2392.0</ele>
      </trkpt>
      <trkpt lat="45.412924" lon="6.943417">
        <time>1970-01-01T00:00:00+00:00</time>
        <ele>2395.0</ele>
      </trkpt>
      <trkpt lat="45.412734" lon="6.943101">
        <time>1970-01-01T00:00:00+00:00</time>
        <ele>2399.0</ele>
      </trkpt>
      <trkpt lat="45.412692" lon="6.942889">
        <time>1970-01-01T00:00:00+00:00</time>
        <ele>2402.0</ele>
      </trkpt>
      <trkpt lat="45.412682" lon="6.942746">
        <time>1970-01-01T00:00:00+00:00</time>
        <ele>2405.0</ele>
      </trkpt>
      <trkpt lat="45.412644" lon="6.942653">
        <time>1970-01-01T00:00:00+00:00</time>
        <ele>2406.0</ele>
      </trkpt>
      <trkpt lat="45.412309" lon="6.942251">
        <time>1970-01-01T00:00:00+00:00</time>
        <ele>2413.0</ele>
      </trkpt>
      <trkpt lat="45.412286" lon="6.942215">
        <time>1970-01-01T00:00:00+00:00</time>
        <ele>2414.0</ele>
      </trkpt>
      <trkpt lat="45.412282" lon="6.942157">
        <time>1970-01-01T00:00:00+00:00</time>
        <ele>2415.0</ele>
      </trkpt>
      <trkpt lat="45.412349" lon="6.942128">
        <time>1970-01-01T00:00:00+00:00</time>
        <ele>2417.0</ele>
      </trkpt>
      <trkpt lat="45.412431" lon="6.942121">
        <time>1970-01-01T00:00:00+00:00</time>
        <ele>2419.0</ele>
      </trkpt>
      <trkpt lat="45.412868" lon="6.942183">
        <time>1970-01-01T00:00:00+00:00</time>
        <ele>2426.0</ele>
      </trkpt>
      <trkpt lat="45.412946" lon="6.942234">
        <time>1970-01-01T00:00:00+00:00</time>
        <ele>2426.0</ele>
      </trkpt>
      <trkpt lat="45.413" lon="6.942376">
        <time>1970-01-01T00:00:00+00:00</time>
        <ele>2425.0</ele>
      </trkpt>
      <trkpt lat="45.413122" lon="6.94247">
        <time>1970-01-01T00:00:00+00:00</time>
        <ele>2429.0</ele>
      </trkpt>
      <trkpt lat="45.413231" lon="6.942596">
        <time>1970-01-01T00:00:00+00:00</time>
        <ele>2431.0</ele>
      </trkpt>
      <trkpt lat="45.413326" lon="6.942651">
        <time>1970-01-01T00:00:00+00:00</time>
        <ele>2434.0</ele>
      </trkpt>
      <trkpt lat="45.413453" lon="6.942774">
        <time>1970-01-01T00:00:00+00:00</time>
        <ele>2437.0</ele>
      </trkpt>
      <trkpt lat="45.413621" lon="6.943074">
        <time>1970-01-01T00:00:00+00:00</time>
        <ele>2437.0</ele>
      </trkpt>
      <trkpt lat="45.413834" lon="6.943268">
        <time>1970-01-01T00:00:00+00:00</time>
        <ele>2442.0</ele>
      </trkpt>
      <trkpt lat="45.414098" lon="6.943597">
        <time>1970-01-01T00:00:00+00:00</time>
        <ele>2445.0</ele>
      </trkpt>
      <trkpt lat="45.414154" lon="6.943775">
        <time>1970-01-01T00:00:00+00:00</time>
        <ele>2446.0</ele>
      </trkpt>
      <trkpt lat="45.414327" lon="6.944185">
        <time>1970-01-01T00:00:00+00:00</time>
        <ele>2449.0</ele>
      </trkpt>
      <trkpt lat="45.414419" lon="6.944447">
        <time>1970-01-01T00:00:00+00:00</time>
        <ele>2450.0</ele>
      </trkpt>
      <trkpt lat="45.41449" lon="6.944557">
        <time>1970-01-01T00:00:00+00:00</time>
        <ele>2454.0</ele>
      </trkpt>
      <trkpt lat="45.414542" lon="6.944692">
        <time>1970-01-01T00:00:00+00:00</time>
        <ele>2454.0</ele>
      </trkpt>
      <trkpt lat="45.414544" lon="6.944751">
        <time>1970-01-01T00:00:00+00:00</time>
        <ele>2453.0</ele>
      </trkpt>
      <trkpt lat="45.41459" lon="6.944908">
        <time>1970-01-01T00:00:00+00:00</time>
        <ele>2452.0</ele>
      </trkpt>
      <trkpt lat="45.414821" lon="6.945384">
        <time>1970-01-01T00:00:00+00:00</time>
        <ele>2459.0</ele>
      </trkpt>
      <trkpt lat="45.414875" lon="6.945455">
        <time>1970-01-01T00:00:00+00:00</time>
        <ele>2462.0</ele>
      </trkpt>
      <trkpt lat="45.414952" lon="6.945687">
        <time>1970-01-01T00:00:00+00:00</time>
        <ele>2463.0</ele>
      </trkpt>
      <trkpt lat="45.414977" lon="6.945816">
        <time>1970-01-01T00:00:00+00:00</time>
        <ele>2461.0</ele>
      </trkpt>
      <trkpt lat="45.415022" lon="6.945917">
        <time>1970-01-01T00:00:00+00:00</time>
        <ele>2460.0</ele>
      </trkpt>
      <trkpt lat="45.415077" lon="6.945984">
        <time>1970-01-01T00:00:00+00:00</time>
        <ele>2462.0</ele>
      </trkpt>
      <trkpt lat="45.415147" lon="6.94601">
        <time>1970-01-01T00:00:00+00:00</time>
        <ele>2466.0</ele>
      </trkpt>
      <trkpt lat="45.415172" lon="6.946052">
        <time>1970-01-01T00:00:00+00:00</time>
        <ele>2467.0</ele>
      </trkpt>
      <trkpt lat="45.415179" lon="6.946204">
        <time>1970-01-01T00:00:00+00:00</time>
        <ele>2467.0</ele>
      </trkpt>
      <trkpt lat="45.415274" lon="6.946537">
        <time>1970-01-01T00:00:00+00:00</time>
        <ele>2473.0</ele>
      </trkpt>
      <trkpt lat="45.415267" lon="6.946924">
        <time>1970-01-01T00:00:00+00:00</time>
        <ele>2471.0</ele>
      </trkpt>
      <trkpt lat="45.415313" lon="6.947089">
        <time>1970-01-01T00:00:00+00:00</time>
        <ele>2474.0</ele>
      </trkpt>
      <trkpt lat="45.415478" lon="6.947415">
        <time>1970-01-01T00:00:00+00:00</time>
        <ele>2485.0</ele>
      </trkpt>
      <trkpt lat="45.41549" lon="6.947506">
        <time>1970-01-01T00:00:00+00:00</time>
        <ele>2488.0</ele>
      </trkpt>
      <trkpt lat="45.415433" lon="6.948087">
        <time>1970-01-01T00:00:00+00:00</time>
        <ele>2495.0</ele>
      </trkpt>
      <trkpt lat="45.41544" lon="6.948216">
        <time>1970-01-01T00:00:00+00:00</time>
        <ele>2498.0</ele>
      </trkpt>
      <trkpt lat="45.415422" lon="6.948455">
        <time>1970-01-01T00:00:00+00:00</time>
        <ele>2501.0</ele>
      </trkpt>
      <trkpt lat="45.415435" lon="6.948594">
        <time>1970-01-01T00:00:00+00:00</time>
        <ele>2502.0</ele>
      </trkpt>
      <trkpt lat="45.415478" lon="6.948656">
        <time>1970-01-01T00:00:00+00:00</time>
        <ele>2504.0</ele>
      </trkpt>
      <trkpt lat="45.415641" lon="6.948717">
        <time>1970-01-01T00:00:00+00:00</time>
        <ele>2508.0</ele>
      </trkpt>
      <trkpt lat="45.415771" lon="6.948665">
        <time>1970-01-01T00:00:00+00:00</time>
        <ele>2511.0</ele>
      </trkpt>
      <trkpt lat="45.415823" lon="6.948572">
        <time>1970-01-01T00:00:00+00:00</time>
        <ele>2513.0</ele>
      </trkpt>
      <trkpt lat="45.41595" lon="6.948074">
        <time>1970-01-01T00:00:00+00:00</time>
        <ele>2515.0</ele>
      </trkpt>
      <trkpt lat="45.416217" lon="6.947412">
        <time>1970-01-01T00:00:00+00:00</time>
        <ele>2518.0</ele>
      </trkpt>
      <trkpt lat="45.416267" lon="6.947183">
        <time>1970-01-01T00:00:00+00:00</time>
        <ele>2519.0</ele>
      </trkpt>
      <trkpt lat="45.416293" lon="6.946611">
        <time>1970-01-01T00:00:00+00:00</time>
        <ele>2519.0</ele>
      </trkpt>
      <trkpt lat="45.416288" lon="6.945051">
        <time>1970-01-01T00:00:00+00:00</time>
        <ele>2523.0</ele>
      </trkpt>
      <trkpt lat="45.416307" lon="6.944546">
        <time>1970-01-01T00:00:00+00:00</time>
        <ele>2526.0</ele>
      </trkpt>
      <trkpt lat="45.416354" lon="6.944134">
        <time>1970-01-01T00:00:00+00:00</time>
        <ele>2528.0</ele>
      </trkpt>
      <trkpt lat="45.416399" lon="6.943962">
        <time>1970-01-01T00:00:00+00:00</time>
        <ele>2530.0</ele>
      </trkpt>
      <trkpt lat="45.416451" lon="6.943662">
        <time>1970-01-01T00:00:00+00:00</time>
        <ele>2533.0</ele>
      </trkpt>
      <trkpt lat="45.416469" lon="6.943449">
        <time>1970-01-01T00:00:00+00:00</time>
        <ele>2535.0</ele>
      </trkpt>
      <trkpt lat="45.41646" lon="6.943119">
        <time>1970-01-01T00:00:00+00:00</time>
        <ele>2538.0</ele>
      </trkpt>
      <trkpt lat="45.416444" lon="6.94301">
        <time>1970-01-01T00:00:00+00:00</time>
        <ele>2539.0</ele>
      </trkpt>
      <trkpt lat="45.416462" lon="6.942922">
        <time>1970-01-01T00:00:00+00:00</time>
        <ele>2539.0</ele>
      </trkpt>
      <trkpt lat="45.416485" lon="6.942863">
        <time>1970-01-01T00:00:00+00:00</time>
        <ele>2540.0</ele>
      </trkpt>
      <trkpt lat="45.416529" lon="6.942818">
        <time>1970-01-01T00:00:00+00:00</time>
        <ele>2541.0</ele>
      </trkpt>
      <trkpt lat="45.416718" lon="6.942729">
        <time>1970-01-01T00:00:00+00:00</time>
        <ele>2544.0</ele>
      </trkpt>
      <trkpt lat="45.416796" lon="6.942712">
        <time>1970-01-01T00:00:00+00:00</time>
        <ele>2546.0</ele>
      </trkpt>
      <trkpt lat="45.416972" lon="6.94257">
        <time>1970-01-01T00:00:00+00:00</time>
        <ele>2550.0</ele>
      </trkpt>
      <trkpt lat="45.417365" lon="6.942422">
        <time>1970-01-01T00:00:00+00:00</time>
        <ele>2558.0</ele>
      </trkpt>
      <trkpt lat="45.417462" lon="6.942357">
        <time>1970-01-01T00:00:00+00:00</time>
        <ele>2560.0</ele>
      </trkpt>
      <trkpt lat="45.417532" lon="6.942276">
        <time>1970-01-01T00:00:00+00:00</time>
        <ele>2562.0</ele>
      </trkpt>
      <trkpt lat="45.41758" lon="6.942118">
        <time>1970-01-01T00:00:00+00:00</time>
        <ele>2564.0</ele>
      </trkpt>
      <trkpt lat="45.417605" lon="6.941844">
        <time>1970-01-01T00:00:00+00:00</time>
        <ele>2567.0</ele>
      </trkpt>
      <trkpt lat="45.417648" lon="6.941753">
        <time>1970-01-01T00:00:00+00:00</time>
        <ele>2568.0</ele>
      </trkpt>
      <trkpt lat="45.417986" lon="6.941393">
        <time>1970-01-01T00:00:00+00:00</time>
        <ele>2575.0</ele>
      </trkpt>
      <trkpt lat="45.418217" lon="6.941108">
        <time>1970-01-01T00:00:00+00:00</time>
        <ele>2582.0</ele>
      </trkpt>
      <trkpt lat="45.418252" lon="6.941024">
        <time>1970-01-01T00:00:00+00:00</time>
        <ele>2583.0</ele>
      </trkpt>
      <trkpt lat="45.418306" lon="6.94072">
        <time>1970-01-01T00:00:00+00:00</time>
        <ele>2586.0</ele>
      </trkpt>
      <trkpt lat="45.418349" lon="6.940558">
        <time>1970-01-01T00:00:00+00:00</time>
        <ele>2589.0</ele>
      </trkpt>
      <trkpt lat="45.418444" lon="6.94029">
        <time>1970-01-01T00:00:00+00:00</time>
        <ele>2593.0</ele>
      </trkpt>
      <trkpt lat="45.418514" lon="6.940183">
        <time>1970-01-01T00:00:00+00:00</time>
        <ele>2596.0</ele>
      </trkpt>
      <trkpt lat="45.418716" lon="6.939986">
        <time>1970-01-01T00:00:00+00:00</time>
        <ele>2602.0</ele>
      </trkpt>
      <trkpt lat="45.418795" lon="6.939883">
        <time>1970-01-01T00:00:00+00:00</time>
        <ele>2604.0</ele>
      </trkpt>
      <trkpt lat="45.418795" lon="6.939883">
        <time>1970-01-01T00:00:00+00:00</time>
        <ele>2604.0</ele>
      </trkpt>
      <trkpt lat="45.418716" lon="6.939986">
        <time>1970-01-01T00:00:00+00:00</time>
        <ele>2602.0</ele>
      </trkpt>
      <trkpt lat="45.418514" lon="6.940183">
        <time>1970-01-01T00:00:00+00:00</time>
        <ele>2596.0</ele>
      </trkpt>
      <trkpt lat="45.418444" lon="6.94029">
        <time>1970-01-01T00:00:00+00:00</time>
        <ele>2593.0</ele>
      </trkpt>
      <trkpt lat="45.418349" lon="6.940558">
        <time>1970-01-01T00:00:00+00:00</time>
        <ele>2589.0</ele>
      </trkpt>
      <trkpt lat="45.418306" lon="6.94072">
        <time>1970-01-01T00:00:00+00:00</time>
        <ele>2586.0</ele>
      </trkpt>
      <trkpt lat="45.418252" lon="6.941024">
        <time>1970-01-01T00:00:00+00:00</time>
        <ele>2583.0</ele>
      </trkpt>
      <trkpt lat="45.418217" lon="6.941108">
        <time>1970-01-01T00:00:00+00:00</time>
        <ele>2582.0</ele>
      </trkpt>
      <trkpt lat="45.417986" lon="6.941393">
        <time>1970-01-01T00:00:00+00:00</time>
        <ele>2575.0</ele>
      </trkpt>
      <trkpt lat="45.417648" lon="6.941753">
        <time>1970-01-01T00:00:00+00:00</time>
        <ele>2568.0</ele>
      </trkpt>
      <trkpt lat="45.417605" lon="6.941844">
        <time>1970-01-01T00:00:00+00:00</time>
        <ele>2567.0</ele>
      </trkpt>
      <trkpt lat="45.41758" lon="6.942118">
        <time>1970-01-01T00:00:00+00:00</time>
        <ele>2564.0</ele>
      </trkpt>
      <trkpt lat="45.417532" lon="6.942276">
        <time>1970-01-01T00:00:00+00:00</time>
        <ele>2562.0</ele>
      </trkpt>
      <trkpt lat="45.417462" lon="6.942357">
        <time>1970-01-01T00:00:00+00:00</time>
        <ele>2560.0</ele>
      </trkpt>
      <trkpt lat="45.417365" lon="6.942422">
        <time>1970-01-01T00:00:00+00:00</time>
        <ele>2558.0</ele>
      </trkpt>
      <trkpt lat="45.416972" lon="6.94257">
        <time>1970-01-01T00:00:00+00:00</time>
        <ele>2550.0</ele>
      </trkpt>
      <trkpt lat="45.416796" lon="6.942712">
        <time>1970-01-01T00:00:00+00:00</time>
        <ele>2546.0</ele>
      </trkpt>
      <trkpt lat="45.416718" lon="6.942729">
        <time>1970-01-01T00:00:00+00:00</time>
        <ele>2544.0</ele>
      </trkpt>
      <trkpt lat="45.416529" lon="6.942818">
        <time>1970-01-01T00:00:00+00:00</time>
        <ele>2541.0</ele>
      </trkpt>
      <trkpt lat="45.416485" lon="6.942863">
        <time>1970-01-01T00:00:00+00:00</time>
        <ele>2540.0</ele>
      </trkpt>
      <trkpt lat="45.416462" lon="6.942922">
        <time>1970-01-01T00:00:00+00:00</time>
        <ele>2539.0</ele>
      </trkpt>
      <trkpt lat="45.416444" lon="6.94301">
        <time>1970-01-01T00:00:00+00:00</time>
        <ele>2539.0</ele>
      </trkpt>
      <trkpt lat="45.41646" lon="6.943119">
        <time>1970-01-01T00:00:00+00:00</time>
        <ele>2538.0</ele>
      </trkpt>
      <trkpt lat="45.416469" lon="6.943449">
        <time>1970-01-01T00:00:00+00:00</time>
        <ele>2535.0</ele>
      </trkpt>
      <trkpt lat="45.416451" lon="6.943662">
        <time>1970-01-01T00:00:00+00:00</time>
        <ele>2533.0</ele>
      </trkpt>
      <trkpt lat="45.416399" lon="6.943962">
        <time>1970-01-01T00:00:00+00:00</time>
        <ele>2530.0</ele>
      </trkpt>
      <trkpt lat="45.416354" lon="6.944134">
        <time>1970-01-01T00:00:00+00:00</time>
        <ele>2528.0</ele>
      </trkpt>
      <trkpt lat="45.416307" lon="6.944546">
        <time>1970-01-01T00:00:00+00:00</time>
        <ele>2526.0</ele>
      </trkpt>
      <trkpt lat="45.416288" lon="6.945051">
        <time>1970-01-01T00:00:00+00:00</time>
        <ele>2523.0</ele>
      </trkpt>
      <trkpt lat="45.416293" lon="6.946611">
        <time>1970-01-01T00:00:00+00:00</time>
        <ele>2519.0</ele>
      </trkpt>
      <trkpt lat="45.416267" lon="6.947183">
        <time>1970-01-01T00:00:00+00:00</time>
        <ele>2519.0</ele>
      </trkpt>
      <trkpt lat="45.416217" lon="6.947412">
        <time>1970-01-01T00:00:00+00:00</time>
        <ele>2518.0</ele>
      </trkpt>
      <trkpt lat="45.41595" lon="6.948074">
        <time>1970-01-01T00:00:00+00:00</time>
        <ele>2515.0</ele>
      </trkpt>
      <trkpt lat="45.415823" lon="6.948572">
        <time>1970-01-01T00:00:00+00:00</time>
        <ele>2513.0</ele>
      </trkpt>
      <trkpt lat="45.415771" lon="6.948665">
        <time>1970-01-01T00:00:00+00:00</time>
        <ele>2511.0</ele>
      </trkpt>
      <trkpt lat="45.415641" lon="6.948717">
        <time>1970-01-01T00:00:00+00:00</time>
        <ele>2508.0</ele>
      </trkpt>
      <trkpt lat="45.415478" lon="6.948656">
        <time>1970-01-01T00:00:00+00:00</time>
        <ele>2504.0</ele>
      </trkpt>
      <trkpt lat="45.415435" lon="6.948594">
        <time>1970-01-01T00:00:00+00:00</time>
        <ele>2502.0</ele>
      </trkpt>
      <trkpt lat="45.415422" lon="6.948455">
        <time>1970-01-01T00:00:00+00:00</time>
        <ele>2501.0</ele>
      </trkpt>
      <trkpt lat="45.41544" lon="6.948216">
        <time>1970-01-01T00:00:00+00:00</time>
        <ele>2498.0</ele>
      </trkpt>
      <trkpt lat="45.415433" lon="6.948087">
        <time>1970-01-01T00:00:00+00:00</time>
        <ele>2495.0</ele>
      </trkpt>
      <trkpt lat="45.41549" lon="6.947506">
        <time>1970-01-01T00:00:00+00:00</time>
        <ele>2488.0</ele>
      </trkpt>
      <trkpt lat="45.415478" lon="6.947415">
        <time>1970-01-01T00:00:00+00:00</time>
        <ele>2485.0</ele>
      </trkpt>
      <trkpt lat="45.415313" lon="6.947089">
        <time>1970-01-01T00:00:00+00:00</time>
        <ele>2474.0</ele>
      </trkpt>
      <trkpt lat="45.415267" lon="6.946924">
        <time>1970-01-01T00:00:00+00:00</time>
        <ele>2471.0</ele>
      </trkpt>
      <trkpt lat="45.415274" lon="6.946537">
        <time>1970-01-01T00:00:00+00:00</time>
        <ele>2473.0</ele>
      </trkpt>
      <trkpt lat="45.415179" lon="6.946204">
        <time>1970-01-01T00:00:00+00:00</time>
        <ele>2467.0</ele>
      </trkpt>
      <trkpt lat="45.415172" lon="6.946052">
        <time>1970-01-01T00:00:00+00:00</time>
        <ele>2467.0</ele>
      </trkpt>
      <trkpt lat="45.415147" lon="6.94601">
        <time>1970-01-01T00:00:00+00:00</time>
        <ele>2466.0</ele>
      </trkpt>
      <trkpt lat="45.415077" lon="6.945984">
        <time>1970-01-01T00:00:00+00:00</time>
        <ele>2462.0</ele>
      </trkpt>
      <trkpt lat="45.415022" lon="6.945917">
        <time>1970-01-01T00:00:00+00:00</time>
        <ele>2460.0</ele>
      </trkpt>
      <trkpt lat="45.414977" lon="6.945816">
        <time>1970-01-01T00:00:00+00:00</time>
        <ele>2461.0</ele>
      </trkpt>
      <trkpt lat="45.414952" lon="6.945687">
        <time>1970-01-01T00:00:00+00:00</time>
        <ele>2463.0</ele>
      </trkpt>
      <trkpt lat="45.414875" lon="6.945455">
        <time>1970-01-01T00:00:00+00:00</time>
        <ele>2462.0</ele>
      </trkpt>
      <trkpt lat="45.414821" lon="6.945384">
        <time>1970-01-01T00:00:00+00:00</time>
        <ele>2459.0</ele>
      </trkpt>
      <trkpt lat="45.41459" lon="6.944908">
        <time>1970-01-01T00:00:00+00:00</time>
        <ele>2452.0</ele>
      </trkpt>
      <trkpt lat="45.414544" lon="6.944751">
        <time>1970-01-01T00:00:00+00:00</time>
        <ele>2453.0</ele>
      </trkpt>
      <trkpt lat="45.414542" lon="6.944692">
        <time>1970-01-01T00:00:00+00:00</time>
        <ele>2454.0</ele>
      </trkpt>
      <trkpt lat="45.41449" lon="6.944557">
        <time>1970-01-01T00:00:00+00:00</time>
        <ele>2454.0</ele>
      </trkpt>
      <trkpt lat="45.414419" lon="6.944447">
        <time>1970-01-01T00:00:00+00:00</time>
        <ele>2450.0</ele>
      </trkpt>
      <trkpt lat="45.414327" lon="6.944185">
        <time>1970-01-01T00:00:00+00:00</time>
        <ele>2449.0</ele>
      </trkpt>
      <trkpt lat="45.414154" lon="6.943775">
        <time>1970-01-01T00:00:00+00:00</time>
        <ele>2446.0</ele>
      </trkpt>
      <trkpt lat="45.414098" lon="6.943597">
        <time>1970-01-01T00:00:00+00:00</time>
        <ele>2445.0</ele>
      </trkpt>
      <trkpt lat="45.413834" lon="6.943268">
        <time>1970-01-01T00:00:00+00:00</time>
        <ele>2442.0</ele>
      </trkpt>
      <trkpt lat="45.413621" lon="6.943074">
        <time>1970-01-01T00:00:00+00:00</time>
        <ele>2437.0</ele>
      </trkpt>
      <trkpt lat="45.413453" lon="6.942774">
        <time>1970-01-01T00:00:00+00:00</time>
        <ele>2437.0</ele>
      </trkpt>
      <trkpt lat="45.413326" lon="6.942651">
        <time>1970-01-01T00:00:00+00:00</time>
        <ele>2434.0</ele>
      </trkpt>
      <trkpt lat="45.413231" lon="6.942596">
        <time>1970-01-01T00:00:00+00:00</time>
        <ele>2431.0</ele>
      </trkpt>
      <trkpt lat="45.413122" lon="6.94247">
        <time>1970-01-01T00:00:00+00:00</time>
        <ele>2429.0</ele>
      </trkpt>
      <trkpt lat="45.413" lon="6.942376">
        <time>1970-01-01T00:00:00+00:00</time>
        <ele>2425.0</ele>
      </trkpt>
      <trkpt lat="45.412946" lon="6.942234">
        <time>1970-01-01T00:00:00+00:00</time>
        <ele>2426.0</ele>
      </trkpt>
      <trkpt lat="45.412868" lon="6.942183">
        <time>1970-01-01T00:00:00+00:00</time>
        <ele>2426.0</ele>
      </trkpt>
      <trkpt lat="45.412431" lon="6.942121">
        <time>1970-01-01T00:00:00+00:00</time>
        <ele>2419.0</ele>
      </trkpt>
      <trkpt lat="45.412349" lon="6.942128">
        <time>1970-01-01T00:00:00+00:00</time>
        <ele>2417.0</ele>
      </trkpt>
      <trkpt lat="45.412282" lon="6.942157">
        <time>1970-01-01T00:00:00+00:00</time>
        <ele>2415.0</ele>
      </trkpt>
      <trkpt lat="45.412286" lon="6.942215">
        <time>1970-01-01T00:00:00+00:00</time>
        <ele>2414.0</ele>
      </trkpt>
      <trkpt lat="45.412309" lon="6.942251">
        <time>1970-01-01T00:00:00+00:00</time>
        <ele>2413.0</ele>
      </trkpt>
      <trkpt lat="45.412644" lon="6.942653">
        <time>1970-01-01T00:00:00+00:00</time>
        <ele>2406.0</ele>
      </trkpt>
      <trkpt lat="45.412682" lon="6.942746">
        <time>1970-01-01T00:00:00+00:00</time>
        <ele>2405.0</ele>
      </trkpt>
      <trkpt lat="45.412692" lon="6.942889">
        <time>1970-01-01T00:00:00+00:00</time>
        <ele>2402.0</ele>
      </trkpt>
      <trkpt lat="45.412734" lon="6.943101">
        <time>1970-01-01T00:00:00+00:00</time>
        <ele>2399.0</ele>
      </trkpt>
      <trkpt lat="45.412924" lon="6.943417">
        <time>1970-01-01T00:00:00+00:00</time>
        <ele>2395.0</ele>
      </trkpt>
      <trkpt lat="45.413069" lon="6.943706">
        <time>1970-01-01T00:00:00+00:00</time>
        <ele>2392.0</ele>
      </trkpt>
      <trkpt lat="45.413331" lon="6.945448">
        <time>1970-01-01T00:00:00+00:00</time>
        <ele>2375.0</ele>
      </trkpt>
      <trkpt lat="45.413415" lon="6.94615">
        <time>1970-01-01T00:00:00+00:00</time>
        <ele>2371.0</ele>
      </trkpt>
      <trkpt lat="45.413484" lon="6.946578">
        <time>1970-01-01T00:00:00+00:00</time>
        <ele>2371.0</ele>
      </trkpt>
      <trkpt lat="45.413567" lon="6.946901">
        <time>1970-01-01T00:00:00+00:00</time>
        <ele>2369.0</ele>
      </trkpt>
      <trkpt lat="45.413595" lon="6.947224">
        <time>1970-01-01T00:00:00+00:00</time>
        <ele>2365.0</ele>
      </trkpt>
      <trkpt lat="45.413635" lon="6.947433">
        <time>1970-01-01T00:00:00+00:00</time>
        <ele>2363.0</ele>
      </trkpt>
      <trkpt lat="45.413636" lon="6.947758">
        <time>1970-01-01T00:00:00+00:00</time>
        <ele>2359.0</ele>
      </trkpt>
      <trkpt lat="45.413627" lon="6.947909">
        <time>1970-01-01T00:00:00+00:00</time>
        <ele>2358.0</ele>
      </trkpt>
      <trkpt lat="45.413568" lon="6.948115">
        <time>1970-01-01T00:00:00+00:00</time>
        <ele>2355.0</ele>
      </trkpt>
      <trkpt lat="45.413327" lon="6.948447">
        <time>1970-01-01T00:00:00+00:00</time>
        <ele>2343.0</ele>
      </trkpt>
      <trkpt lat="45.413306" lon="6.948539">
        <time>1970-01-01T00:00:00+00:00</time>
        <ele>2341.0</ele>
      </trkpt>
      <trkpt lat="45.413265" lon="6.948624">
        <time>1970-01-01T00:00:00+00:00</time>
        <ele>2338.0</ele>
      </trkpt>
      <trkpt lat="45.413264" lon="6.948877">
        <time>1970-01-01T00:00:00+00:00</time>
        <ele>2337.0</ele>
      </trkpt>
      <trkpt lat="45.413257" lon="6.948975">
        <time>1970-01-01T00:00:00+00:00</time>
        <ele>2336.0</ele>
      </trkpt>
      <trkpt lat="45.413225" lon="6.949079">
        <time>1970-01-01T00:00:00+00:00</time>
        <ele>2334.0</ele>
      </trkpt>
      <trkpt lat="45.413141" lon="6.94921">
        <time>1970-01-01T00:00:00+00:00</time>
        <ele>2328.0</ele>
      </trkpt>
      <trkpt lat="45.413097" lon="6.949397">
        <time>1970-01-01T00:00:00+00:00</time>
        <ele>2326.0</ele>
      </trkpt>
      <trkpt lat="45.413052" lon="6.949473">
        <time>1970-01-01T00:00:00+00:00</time>
        <ele>2323.0</ele>
      </trkpt>
      <trkpt lat="45.413016" lon="6.949582">
        <time>1970-01-01T00:00:00+00:00</time>
        <ele>2323.0</ele>
      </trkpt>
      <trkpt lat="45.412872" lon="6.949844">
        <time>1970-01-01T00:00:00+00:00</time>
        <ele>2319.0</ele>
      </trkpt>
      <trkpt lat="45.412787" lon="6.950168">
        <time>1970-01-01T00:00:00+00:00</time>
        <ele>2316.0</ele>
      </trkpt>
      <trkpt lat="45.412691" lon="6.950387">
        <time>1970-01-01T00:00:00+00:00</time>
        <ele>2312.0</ele>
      </trkpt>
      <trkpt lat="45.412567" lon="6.950465">
        <time>1970-01-01T00:00:00+00:00</time>
        <ele>2308.0</ele>
      </trkpt>
      <trkpt lat="45.412514" lon="6.950524">
        <time>1970-01-01T00:00:00+00:00</time>
        <ele>2306.0</ele>
      </trkpt>
      <trkpt lat="45.412459" lon="6.95063">
        <time>1970-01-01T00:00:00+00:00</time>
        <ele>2304.0</ele>
      </trkpt>
      <trkpt lat="45.412433" lon="6.950743">
        <time>1970-01-01T00:00:00+00:00</time>
        <ele>2303.0</ele>
      </trkpt>
      <trkpt lat="45.412381" lon="6.950833">
        <time>1970-01-01T00:00:00+00:00</time>
        <ele>2301.0</ele>
      </trkpt>
      <trkpt lat="45.412167" lon="6.951109">
        <time>1970-01-01T00:00:00+00:00</time>
        <ele>2295.0</ele>
      </trkpt>
      <trkpt lat="45.412045" lon="6.951349">
        <time>1970-01-01T00:00:00+00:00</time>
        <ele>2292.0</ele>
      </trkpt>
      <trkpt lat="45.411826" lon="6.951649">
        <time>1970-01-01T00:00:00+00:00</time>
        <ele>2283.0</ele>
      </trkpt>
      <trkpt lat="45.411793" lon="6.951821">
        <time>1970-01-01T00:00:00+00:00</time>
        <ele>2282.0</ele>
      </trkpt>
      <trkpt lat="45.41179" lon="6.951942">
        <time>1970-01-01T00:00:00+00:00</time>
        <ele>2281.0</ele>
      </trkpt>
      <trkpt lat="45.41174" lon="6.952014">
        <time>1970-01-01T00:00:00+00:00</time>
        <ele>2279.0</ele>
      </trkpt>
      <trkpt lat="45.41169" lon="6.95231">
        <time>1970-01-01T00:00:00+00:00</time>
        <ele>2276.0</ele>
      </trkpt>
      <trkpt lat="45.411693" lon="6.952459">
        <time>1970-01-01T00:00:00+00:00</time>
        <ele>2274.0</ele>
      </trkpt>
      <trkpt lat="45.411641" lon="6.952575">
        <time>1970-01-01T00:00:00+00:00</time>
        <ele>2271.0</ele>
      </trkpt>
      <trkpt lat="45.411536" lon="6.953002">
        <time>1970-01-01T00:00:00+00:00</time>
        <ele>2259.0</ele>
      </trkpt>
      <trkpt lat="45.4116" lon="6.953238">
        <time>1970-01-01T00:00:00+00:00</time>
        <ele>2259.0</ele>
      </trkpt>
      <trkpt lat="45.411562" lon="6.953493">
        <time>1970-01-01T00:00:00+00:00</time>
        <ele>2252.0</ele>
      </trkpt>
      <trkpt lat="45.411607" lon="6.953647">
        <time>1970-01-01T00:00:00+00:00</time>
        <ele>2251.0</ele>
      </trkpt>
      <trkpt lat="45.411551" lon="6.953868">
        <time>1970-01-01T00:00:00+00:00</time>
        <ele>2244.0</ele>
      </trkpt>
      <trkpt lat="45.411567" lon="6.954081">
        <time>1970-01-01T00:00:00+00:00</time>
        <ele>2242.0</ele>
      </trkpt>
      <trkpt lat="45.411557" lon="6.954435">
        <time>1970-01-01T00:00:00+00:00</time>
        <ele>2238.0</ele>
      </trkpt>
      <trkpt lat="45.411504" lon="6.954986">
        <time>1970-01-01T00:00:00+00:00</time>
        <ele>2229.0</ele>
      </trkpt>
      <trkpt lat="45.411451" lon="6.955172">
        <time>1970-01-01T00:00:00+00:00</time>
        <ele>2223.0</ele>
      </trkpt>
      <trkpt lat="45.411436" lon="6.955853">
        <time>1970-01-01T00:00:00+00:00</time>
        <ele>2209.0</ele>
      </trkpt>
      <trkpt lat="45.411317" lon="6.956084">
        <time>1970-01-01T00:00:00+00:00</time>
        <ele>2199.0</ele>
      </trkpt>
      <trkpt lat="45.411434" lon="6.95629">
        <time>1970-01-01T00:00:00+00:00</time>
        <ele>2198.0</ele>
      </trkpt>
      <trkpt lat="45.411459" lon="6.957515">
        <time>1970-01-01T00:00:00+00:00</time>
        <ele>2173.0</ele>
      </trkpt>
      <trkpt lat="45.411388" lon="6.958145">
        <time>1970-01-01T00:00:00+00:00</time>
        <ele>2162.0</ele>
      </trkpt>
      <trkpt lat="45.411568" lon="6.959482">
        <time>1970-01-01T00:00:00+00:00</time>
        <ele>2142.0</ele>
      </trkpt>
      <trkpt lat="45.411585" lon="6.959863">
        <time>1970-01-01T00:00:00+00:00</time>
        <ele>2132.0</ele>
      </trkpt>
      <trkpt lat="45.411763" lon="6.960504">
        <time>1970-01-01T00:00:00+00:00</time>
        <ele>2117.0</ele>
      </trkpt>
      <trkpt lat="45.411792" lon="6.960763">
        <time>1970-01-01T00:00:00+00:00</time>
        <ele>2109.0</ele>
      </trkpt>
      <trkpt lat="45.411869" lon="6.960909">
        <time>1970-01-01T00:00:00+00:00</time>
        <ele>2109.0</ele>
      </trkpt>
      <trkpt lat="45.411888" lon="6.960977">
        <time>1970-01-01T00:00:00+00:00</time>
        <ele>2108.0</ele>
      </trkpt>
      <trkpt lat="45.412017" lon="6.961632">
        <time>1970-01-01T00:00:00+00:00</time>
        <ele>2098.0</ele>
      </trkpt>
      <trkpt lat="45.412104" lon="6.961839">
        <time>1970-01-01T00:00:00+00:00</time>
        <ele>2095.0</ele>
      </trkpt>
      <trkpt lat="45.412206" lon="6.962033">
        <time>1970-01-01T00:00:00+00:00</time>
        <ele>2093.0</ele>
      </trkpt>
      <trkpt lat="45.412437" lon="6.962838">
        <time>1970-01-01T00:00:00+00:00</time>
        <ele>2085.0</ele>
      </trkpt>
      <trkpt lat="45.412482" lon="6.963328">
        <time>1970-01-01T00:00:00+00:00</time>
        <ele>2082.0</ele>
      </trkpt>
      <trkpt lat="45.412529" lon="6.963572">
        <time>1970-01-01T00:00:00+00:00</time>
        <ele>2080.0</ele>
      </trkpt>
      <trkpt lat="45.412724" lon="6.964066">
        <time>1970-01-01T00:00:00+00:00</time>
        <ele>2077.0</ele>
      </trkpt>
      <trkpt lat="45.413416" lon="6.965212">
        <time>1970-01-01T00:00:00+00:00</time>
        <ele>2065.0</ele>
      </trkpt>
      <trkpt lat="45.413668" lon="6.96582">
        <time>1970-01-01T00:00:00+00:00</time>
        <ele>2062.0</ele>
      </trkpt>
      <trkpt lat="45.413791" lon="6.966034">
        <time>1970-01-01T00:00:00+00:00</time>
        <ele>2060.0</ele>
      </trkpt>
      <trkpt lat="45.414209" lon="6.966478">
        <time>1970-01-01T00:00:00+00:00</time>
        <ele>2056.0</ele>
      </trkpt>
      <trkpt lat="45.4146" lon="6.966856">
        <time>1970-01-01T00:00:00+00:00</time>
        <ele>2052.0</ele>
      </trkpt>
      <trkpt lat="45.415055" lon="6.967243">
        <time>1970-01-01T00:00:00+00:00</time>
        <ele>2047.0</ele>
      </trkpt>
      <trkpt lat="45.415347" lon="6.96747">
        <time>1970-01-01T00:00:00+00:00</time>
        <ele>2044.0</ele>
      </trkpt>
      <trkpt lat="45.415612" lon="6.967724">
        <time>1970-01-01T00:00:00+00:00</time>
        <ele>2037.0</ele>
      </trkpt>
      <trkpt lat="45.415718" lon="6.967789">
        <time>1970-01-01T00:00:00+00:00</time>
        <ele>2036.0</ele>
      </trkpt>
      <trkpt lat="45.415918" lon="6.96778">
        <time>1970-01-01T00:00:00+00:00</time>
        <ele>2037.0</ele>
      </trkpt>
      <trkpt lat="45.416312" lon="6.96797">
        <time>1970-01-01T00:00:00+00:00</time>
        <ele>2035.0</ele>
      </trkpt>
      <trkpt lat="45.416316" lon="6.96804">
        <time>1970-01-01T00:00:00+00:00</time>
        <ele>2034.0</ele>
      </trkpt>
      <trkpt lat="45.416151" lon="6.96809">
        <time>1970-01-01T00:00:00+00:00</time>
        <ele>2032.0</ele>
      </trkpt>
      <trkpt lat="45.416126" lon="6.968165">
        <time>1970-01-01T00:00:00+00:00</time>
        <ele>2032.0</ele>
      </trkpt>
      <trkpt lat="45.416124" lon="6.968291">
        <time>1970-01-01T00:00:00+00:00</time>
        <ele>2033.0</ele>
      </trkpt>
      <trkpt lat="45.41611" lon="6.968414">
        <time>1970-01-01T00:00:00+00:00</time>
        <ele>2036.0</ele>
      </trkpt>
      <trkpt lat="45.416088" lon="6.96849">
        <time>1970-01-01T00:00:00+00:00</time>
        <ele>2038.0</ele>
      </trkpt>
      <trkpt lat="45.416038" lon="6.968546">
        <time>1970-01-01T00:00:00+00:00</time>
        <ele>2040.0</ele>
      </trkpt>
      <trkpt lat="45.415973" lon="6.968569">
        <time>1970-01-01T00:00:00+00:00</time>
        <ele>2042.0</ele>
      </trkpt>
      <trkpt lat="45.415969" lon="6.968632">
        <time>1970-01-01T00:00:00+00:00</time>
        <ele>2043.0</ele>
      </trkpt>
      <trkpt lat="45.416111" lon="6.968942">
        <time>1970-01-01T00:00:00+00:00</time>
        <ele>2049.0</ele>
      </trkpt>
      <trkpt lat="45.416057" lon="6.969021">
        <time>1970-01-01T00:00:00+00:00</time>
        <ele>2052.0</ele>
      </trkpt>
      <trkpt lat="45.416136" lon="6.969319">
        <time>1970-01-01T00:00:00+00:00</time>
        <ele>2058.0</ele>
      </trkpt>
      <trkpt lat="45.4159" lon="6.969404">
        <time>1970-01-01T00:00:00+00:00</time>
        <ele>2065.0</ele>
      </trkpt>
      <trkpt lat="45.415671" lon="6.969413">
        <time>1970-01-01T00:00:00+00:00</time>
        <ele>2071.0</ele>
      </trkpt>
      <trkpt lat="45.415613" lon="6.969372">
        <time>1970-01-01T00:00:00+00:00</time>
        <ele>2071.0</ele>
      </trkpt>
      <trkpt lat="45.415659" lon="6.969599">
        <time>1970-01-01T00:00:00+00:00</time>
        <ele>2075.0</ele>
      </trkpt>
      <trkpt lat="45.415718" lon="6.96974">
        <time>1970-01-01T00:00:00+00:00</time>
        <ele>2076.0</ele>
      </trkpt>
      <trkpt lat="45.4158" lon="6.969854">
        <time>1970-01-01T00:00:00+00:00</time>
        <ele>2075.0</ele>
      </trkpt>
      <trkpt lat="45.415858" lon="6.970093">
        <time>1970-01-01T00:00:00+00:00</time>
        <ele>2076.0</ele>
      </trkpt>
      <trkpt lat="45.415836" lon="6.970147">
        <time>1970-01-01T00:00:00+00:00</time>
        <ele>2077.0</ele>
      </trkpt>
      <trkpt lat="45.415849" lon="6.970217">
        <time>1970-01-01T00:00:00+00:00</time>
        <ele>2077.0</ele>
      </trkpt>
      <trkpt lat="45.415982" lon="6.970348">
        <time>1970-01-01T00:00:00+00:00</time>
        <ele>2072.0</ele>
      </trkpt>
      <trkpt lat="45.41597" lon="6.970458">
        <time>1970-01-01T00:00:00+00:00</time>
        <ele>2072.0</ele>
      </trkpt>
      <trkpt lat="45.415997" lon="6.970555">
        <time>1970-01-01T00:00:00+00:00</time>
        <ele>2071.0</ele>
      </trkpt>
      <trkpt lat="45.415983" lon="6.970594">
        <time>1970-01-01T00:00:00+00:00</time>
        <ele>2071.0</ele>
      </trkpt>
      <trkpt lat="45.415998" lon="6.970665">
        <time>1970-01-01T00:00:00+00:00</time>
        <ele>2071.0</ele>
      </trkpt>
      <trkpt lat="45.416073" lon="6.970769">
        <time>1970-01-01T00:00:00+00:00</time>
        <ele>2066.0</ele>
      </trkpt>
      <trkpt lat="45.416109" lon="6.970886">
        <time>1970-01-01T00:00:00+00:00</time>
        <ele>2064.0</ele>
      </trkpt>
      <trkpt lat="45.416136" lon="6.970905">
        <time>1970-01-01T00:00:00+00:00</time>
        <ele>2062.0</ele>
      </trkpt>
      <trkpt lat="45.416135" lon="6.970969">
        <time>1970-01-01T00:00:00+00:00</time>
        <ele>2063.0</ele>
      </trkpt>
      <trkpt lat="45.416166" lon="6.971037">
        <time>1970-01-01T00:00:00+00:00</time>
        <ele>2061.0</ele>
      </trkpt>
      <trkpt lat="45.416228" lon="6.971078">
        <time>1970-01-01T00:00:00+00:00</time>
        <ele>2058.0</ele>
      </trkpt>
      <trkpt lat="45.416317" lon="6.971205">
        <time>1970-01-01T00:00:00+00:00</time>
        <ele>2054.0</ele>
      </trkpt>
      <trkpt lat="45.416384" lon="6.971251">
        <time>1970-01-01T00:00:00+00:00</time>
        <ele>2051.0</ele>
      </trkpt>
      <trkpt lat="45.416417" lon="6.971308">
        <time>1970-01-01T00:00:00+00:00</time>
        <ele>2050.0</ele>
      </trkpt>
      <trkpt lat="45.416435" lon="6.97131">
        <time>1970-01-01T00:00:00+00:00</time>
        <ele>2049.0</ele>
      </trkpt>
      <trkpt lat="45.416497" lon="6.971156">
        <time>1970-01-01T00:00:00+00:00</time>
        <ele>2045.0</ele>
      </trkpt>
      <trkpt lat="45.416503" lon="6.971098">
        <time>1970-01-01T00:00:00+00:00</time>
        <ele>2044.0</ele>
      </trkpt>
      <trkpt lat="45.416585" lon="6.971127">
        <time>1970-01-01T00:00:00+00:00</time>
        <ele>2040.0</ele>
      </trkpt>
      <trkpt lat="45.416609" lon="6.971114">
        <time>1970-01-01T00:00:00+00:00</time>
        <ele>2039.0</ele>
      </trkpt>
      <trkpt lat="45.416632" lon="6.970892">
        <time>1970-01-01T00:00:00+00:00</time>
        <ele>2036.0</ele>
      </trkpt>
      <trkpt lat="45.416734" lon="6.97064">
        <time>1970-01-01T00:00:00+00:00</time>
        <ele>2029.0</ele>
      </trkpt>
      <trkpt lat="45.416751" lon="6.970507">
        <time>1970-01-01T00:00:00+00:00</time>
        <ele>2027.0</ele>
      </trkpt>
      <trkpt lat="45.416818" lon="6.970429">
        <time>1970-01-01T00:00:00+00:00</time>
        <ele>2024.0</ele>
      </trkpt>
      <trkpt lat="45.416811" lon="6.970349">
        <time>1970-01-01T00:00:00+00:00</time>
        <ele>2023.0</ele>
      </trkpt>
      <trkpt lat="45.416919" lon="6.970057">
        <time>1970-01-01T00:00:00+00:00</time>
        <ele>2018.0</ele>
      </trkpt>
      <trkpt lat="45.416933" lon="6.969838">
        <time>1970-01-01T00:00:00+00:00</time>
        <ele>2016.0</ele>
      </trkpt>
      <trkpt lat="45.416972" lon="6.969726">
        <time>1970-01-01T00:00:00+00:00</time>
        <ele>2013.0</ele>
      </trkpt>
      <trkpt lat="45.416968" lon="6.969673">
        <time>1970-01-01T00:00:00+00:00</time>
        <ele>2012.0</ele>
      </trkpt>
      <trkpt lat="45.41692" lon="6.969601">
        <time>1970-01-01T00:00:00+00:00</time>
        <ele>2015.0</ele>
      </trkpt>
      <trkpt lat="45.416923" lon="6.969405">
        <time>1970-01-01T00:00:00+00:00</time>
        <ele>2013.0</ele>
      </trkpt>
      <trkpt lat="45.417007" lon="6.969318">
        <time>1970-01-01T00:00:00+00:00</time>
        <ele>2007.0</ele>
      </trkpt>
      <trkpt lat="45.417091" lon="6.969283">
        <time>1970-01-01T00:00:00+00:00</time>
        <ele>2003.0</ele>
      </trkpt>
      <trkpt lat="45.417227" lon="6.969239">
        <time>1970-01-01T00:00:00+00:00</time>
        <ele>2000.0</ele>
      </trkpt>
      <trkpt lat="45.417258" lon="6.969318">
        <time>1970-01-01T00:00:00+00:00</time>
        <ele>2000.0</ele>
      </trkpt>
      <trkpt lat="45.41731" lon="6.969583">
        <time>1970-01-01T00:00:00+00:00</time>
        <ele>1999.0</ele>
      </trkpt>
      <trkpt lat="45.417324" lon="6.969912">
        <time>1970-01-01T00:00:00+00:00</time>
        <ele>1998.0</ele>
      </trkpt>
      <trkpt lat="45.417357" lon="6.970068">
        <time>1970-01-01T00:00:00+00:00</time>
        <ele>1997.0</ele>
      </trkpt>
      <trkpt lat="45.417416" lon="6.970168">
        <time>1970-01-01T00:00:00+00:00</time>
        <ele>1995.0</ele>
      </trkpt>
      <trkpt lat="45.417682" lon="6.970431">
        <time>1970-01-01T00:00:00+00:00</time>
        <ele>1991.0</ele>
      </trkpt>
      <trkpt lat="45.41794" lon="6.970755">
        <time>1970-01-01T00:00:00+00:00</time>
        <ele>1987.0</ele>
      </trkpt>
      <trkpt lat="45.417965" lon="6.970823">
        <time>1970-01-01T00:00:00+00:00</time>
        <ele>1987.0</ele>
      </trkpt>
      <trkpt lat="45.417972" lon="6.971029">
        <time>1970-01-01T00:00:00+00:00</time>
        <ele>1988.0</ele>
      </trkpt>
      <trkpt lat="45.418" lon="6.971221">
        <time>1970-01-01T00:00:00+00:00</time>
        <ele>1988.0</ele>
      </trkpt>
      <trkpt lat="45.418112" lon="6.971463">
        <time>1970-01-01T00:00:00+00:00</time>
        <ele>1986.0</ele>
      </trkpt>
      <trkpt lat="45.418222" lon="6.971638">
        <time>1970-01-01T00:00:00+00:00</time>
        <ele>1984.0</ele>
      </trkpt>
      <trkpt lat="45.418263" lon="6.971664">
        <time>1970-01-01T00:00:00+00:00</time>
        <ele>1982.0</ele>
      </trkpt>
      <trkpt lat="45.418298" lon="6.971664">
        <time>1970-01-01T00:00:00+00:00</time>
        <ele>1981.0</ele>
      </trkpt>
      <trkpt lat="45.418349" lon="6.971604">
        <time>1970-01-01T00:00:00+00:00</time>
        <ele>1979.0</ele>
      </trkpt>
      <trkpt lat="45.418385" lon="6.971142">
        <time>1970-01-01T00:00:00+00:00</time>
        <ele>1975.0</ele>
      </trkpt>
      <trkpt lat="45.41848" lon="6.970962">
        <time>1970-01-01T00:00:00+00:00</time>
        <ele>1972.0</ele>
      </trkpt>
      <trkpt lat="45.418551" lon="6.970742">
        <time>1970-01-01T00:00:00+00:00</time>
        <ele>1970.0</ele>
      </trkpt>
      <trkpt lat="45.418604" lon="6.97064">
        <time>1970-01-01T00:00:00+00:00</time>
        <ele>1969.0</ele>
      </trkpt>
      <trkpt lat="45.418699" lon="6.970602">
        <time>1970-01-01T00:00:00+00:00</time>
        <ele>1967.0</ele>
      </trkpt>
      <trkpt lat="45.418881" lon="6.970613">
        <time>1970-01-01T00:00:00+00:00</time>
        <ele>1964.0</ele>
      </trkpt>
      <trkpt lat="45.418935" lon="6.970659">
        <time>1970-01-01T00:00:00+00:00</time>
        <ele>1963.0</ele>
      </trkpt>
      <trkpt lat="45.418951" lon="6.970707">
        <time>1970-01-01T00:00:00+00:00</time>
        <ele>1962.0</ele>
      </trkpt>
      <trkpt lat="45.418958" lon="6.970908">
        <time>1970-01-01T00:00:00+00:00</time>
        <ele>1961.0</ele>
      </trkpt>
      <trkpt lat="45.418927" lon="6.971371">
        <time>1970-01-01T00:00:00+00:00</time>
        <ele>1961.0</ele>
      </trkpt>
      <trkpt lat="45.418951" lon="6.971486">
        <time>1970-01-01T00:00:00+00:00</time>
        <ele>1961.0</ele>
      </trkpt>
      <trkpt lat="45.41898" lon="6.971529">
        <time>1970-01-01T00:00:00+00:00</time>
        <ele>1961.0</ele>
      </trkpt>
      <trkpt lat="45.419026" lon="6.97158">
        <time>1970-01-01T00:00:00+00:00</time>
        <ele>1961.0</ele>
      </trkpt>
      <trkpt lat="45.419356" lon="6.97175">
        <time>1970-01-01T00:00:00+00:00</time>
        <ele>1962.0</ele>
      </trkpt>
      <trkpt lat="45.419504" lon="6.971844">
        <time>1970-01-01T00:00:00+00:00</time>
        <ele>1961.0</ele>
      </trkpt>
      <trkpt lat="45.419559" lon="6.971903">
        <time>1970-01-01T00:00:00+00:00</time>
        <ele>1961.0</ele>
      </trkpt>
      <trkpt lat="45.419631" lon="6.971946">
        <time>1970-01-01T00:00:00+00:00</time>
        <ele>1961.0</ele>
      </trkpt>
      <trkpt lat="45.419799" lon="6.97204">
        <time>1970-01-01T00:00:00+00:00</time>
        <ele>1961.0</ele>
      </trkpt>
      <trkpt lat="45.419945" lon="6.972089">
        <time>1970-01-01T00:00:00+00:00</time>
        <ele>1960.0</ele>
      </trkpt>
      <trkpt lat="45.420019" lon="6.972146">
        <time>1970-01-01T00:00:00+00:00</time>
        <ele>1960.0</ele>
      </trkpt>
      <trkpt lat="45.420069" lon="6.97222">
        <time>1970-01-01T00:00:00+00:00</time>
        <ele>1960.0</ele>
      </trkpt>
      <trkpt lat="45.420205" lon="6.972518">
        <time>1970-01-01T00:00:00+00:00</time>
        <ele>1962.0</ele>
      </trkpt>
      <trkpt lat="45.420453" lon="6.972747">
        <time>1970-01-01T00:00:00+00:00</time>
        <ele>1961.0</ele>
      </trkpt>
      <trkpt lat="45.420609" lon="6.972807">
        <time>1970-01-01T00:00:00+00:00</time>
        <ele>1959.0</ele>
      </trkpt>
      <trkpt lat="45.4207" lon="6.972786">
        <time>1970-01-01T00:00:00+00:00</time>
        <ele>1957.0</ele>
      </trkpt>
      <trkpt lat="45.420946" lon="6.972644">
        <time>1970-01-01T00:00:00+00:00</time>
        <ele>1952.0</ele>
      </trkpt>
      <trkpt lat="45.421178" lon="6.972623">
        <time>1970-01-01T00:00:00+00:00</time>
        <ele>1950.0</ele>
      </trkpt>
      <trkpt lat="45.4213" lon="6.972591">
        <time>1970-01-01T00:00:00+00:00</time>
        <ele>1949.0</ele>
      </trkpt>
      <trkpt lat="45.421596" lon="6.972455">
        <time>1970-01-01T00:00:00+00:00</time>
        <ele>1946.0</ele>
      </trkpt>
      <trkpt lat="45.421704" lon="6.972445">
        <time>1970-01-01T00:00:00+00:00</time>
        <ele>1945.0</ele>
      </trkpt>
      <trkpt lat="45.421902" lon="6.972464">
        <time>1970-01-01T00:00:00+00:00</time>
        <ele>1944.0</ele>
      </trkpt>
      <trkpt lat="45.42237" lon="6.97254">
        <time>1970-01-01T00:00:00+00:00</time>
        <ele>1941.0</ele>
      </trkpt>
      <trkpt lat="45.422421" lon="6.972541">
        <time>1970-01-01T00:00:00+00:00</time>
        <ele>1941.0</ele>
      </trkpt>
    </trkseg>
  </trk>
</gpx>
